TimeEDT,TemperatureF,Dew PointF,Humidity,Sea Level PressureIn,VisibilityMPH,Wind Direction,Wind SpeedMPH,Gust SpeedMPH,PrecipitationIn,Events,Conditions,WindDirDegrees,DateUTC
12:53 AM,68.0,61.0,78,29.99,10.0,Calm,Calm,-,N/A,,Mostly Cloudy,0,2012-10-03 04:53:00
1:53 AM,66.9,61.0,81,30.00,10.0,Calm,Calm,-,N/A,,Mostly Cloudy,0,2012-10-03 05:53:00
2:53 AM,66.9,62.1,84,30.01,10.0,Calm,Calm,-,N/A,,Mostly Cloudy,0,2012-10-03 06:53:00
3:53 AM,66.9,61.0,81,30.01,10.0,Calm,Calm,-,N/A,,Partly Cloudy,0,2012-10-03 07:53:00
4:53 AM,66.0,61.0,84,30.02,10.0,Calm,Calm,-,N/A,,Partly Cloudy,0,2012-10-03 08:53:00
5:53 AM,64.9,61.0,87,30.03,10.0,Calm,Calm,-,N/A,,Scattered Clouds,0,2012-10-03 09:53:00
6:53 AM,64.9,61.0,87,30.06,10.0,Calm,Calm,-,N/A,,Clear,0,2012-10-03 10:53:00
7:53 AM,64.9,61.0,87,30.08,10.0,Calm,Calm,-,N/A,,Clear,0,2012-10-03 11:53:00
8:53 AM,64.9,62.1,90,30.10,10.0,SW,4.6,-,N/A,,Clear,220,2012-10-03 12:53:00
9:53 AM,66.9,62.1,84,30.13,10.0,WSW,8.1,-,N/A,,Clear,250,2012-10-03 13:53:00
10:53 AM,69.1,62.1,78,30.14,10.0,SSW,5.8,-,N/A,,Clear,210,2012-10-03 14:53:00
11:53 AM,72.0,61.0,68,30.13,10.0,SW,6.9,-,0.00,,Partly Cloudy,230,2012-10-03 15:53:00
12:53 PM,72.0,59.0,64,30.13,10.0,SW,5.8,-,N/A,,Partly Cloudy,230,2012-10-03 16:53:00
1:53 PM,75.9,60.1,58,30.12,10.0,South,8.1,-,N/A,,Clear,190,2012-10-03 17:53:00
2:53 PM,75.0,59.0,57,30.11,10.0,SSW,6.9,-,N/A,,Clear,200,2012-10-03 18:53:00
3:53 PM,75.0,59.0,57,30.12,10.0,WSW,9.2,-,N/A,,Clear,240,2012-10-03 19:53:00
4:53 PM,73.0,59.0,61,30.11,10.0,SSW,6.9,-,N/A,,Partly Cloudy,200,2012-10-03 20:53:00
5:53 PM,71.1,60.1,68,30.13,10.0,SSW,6.9,-,N/A,,Mostly Cloudy,210,2012-10-03 21:53:00
6:53 PM,70.0,60.1,71,30.15,10.0,South,6.9,-,0.00,,Partly Cloudy,190,2012-10-03 22:53:00
7:53 PM,69.1,61.0,75,30.16,10.0,SW,4.6,-,N/A,,Partly Cloudy,220,2012-10-03 23:53:00
8:53 PM,69.1,61.0,75,30.17,10.0,SSW,3.5,-,N/A,,Scattered Clouds,200,2012-10-04 00:53:00
9:53 PM,68.0,61.0,78,30.18,10.0,SSW,3.5,-,N/A,,Clear,200,2012-10-04 01:53:00
10:53 PM,68.0,61.0,78,30.20,10.0,SSW,3.5,-,N/A,,Clear,210,2012-10-04 02:53:00
11:53 PM,66.9,61.0,81,30.21,10.0,Calm,Calm,-,N/A,,Partly Cloudy,0,2012-10-04 03:53:00